Dewpoint
3 5 6 6 6 6 7 7 7 7 8 7 5 2 -1 -1 -2 -1 1 3 3 4 3 3 2 -1 -4 -5 -5 -6 -6 -6 -5 -5 -4 -4 -3 -3 -2 -2 -2 -1 -1 -1 -2 -2 -2 -2 -3 -4 -4 -5 -6 -6 -7 -7 -7 -8 -8 -8 -9 -9 -10 -11 -11 -12 -13 -13 -14 -15 -15 -16 -16 -17
2 5 6 6 6 6 6 6 7 7 7 6 4 1 1 1 -1 -3 -3 -2 -0 2 1 0 -1 -3 -4 -5 -5 -6 -5 -5 -4 -3 -3 -2 -2 -2 -2 -1 -1 -1 -1 -0 0 1 1 0 0 0 -0 -1 -1 -2 -3 -5 -5 -6 -6 -7 -8 -9 -10 -10 -11 -12 -13 -14 -14 -14 -14 -15 -15 -16
3 5 6 5 5 6 6 6 6 7 6 5 3 2 2 3 1 -1 -2 -4 -4 -2 0 -1 -2 -3 -4 -4 -4 -3 -3 -3 -2 -2 -1 -2 -2 -2 -1 -1 -0 0 0 1 1 1 1 1 1 1 1 2 1 1 -0 -1 -2 -2 -3 -4 -5 -7 -9 -11 -11 -12 -13 -14 -14 -14 -14 -14 -15 -15
4 4 5 5 5 5 5 6 6 6 5 4 4 3 3 3 3 2 0 -2 -6 -5 -1 -1 -3 -3 -3 -2 -1 -1 -1 -1 -1 -1 -1 -1 -1 -1 -0 1 1 1 1 1 1 2 2 2 2 2 2 2 2 2 2 1 1 0 -0 -1 -3 -6 -9 -11 -12 -12 -12 -13 -13 -13 -14 -14 -14 -14
4 3 4 5 5 5 5 5 5 5 4 4 4 3 3 3 4 3 2 -1 -4 -6 -4 -3 -3 -2 -1 -1 -0 -0 -0 -0 -0 -0 0 0 1 1 1 1 1 1 1 1 2 2 2 2 2 2 2 2 2 3 3 2 2 1 1 -1 -3 -6 -9 -11 -12 -11 -11 -11 -10 -11 -11 -12 -13 -14
4 4 3 4 4 5 5 4 4 4 3 3 2 2 2 2 3 4 3 1 -1 -4 -6 -4 -2 -1 -0 -0 -0 -0 -0 -0 -0 0 0 1 1 1 1 1 1 1 1 1 1 2 2 2 2 2 2 3 3 3 3 3 3 2 1 -1 -4 -7 -10 -12 -12 -11 -10 -10 -9 -9 -9 -10 -11 -12
3 4 4 3 3 3 3 3 3 2 1 1 0 1 1 1 2 4 4 3 0 -2 -4 -4 -3 -1 -0 0 0 0 -0 -0 0 0 0 0 0 0 0 0 1 1 1 1 1 2 2 3 3 3 3 3 3 3 3 3 3 2 1 -2 -6 -9 -11 -11 -10 -10 -9 -9 -8 -7 -7 -8 -9 -10
1 2 3 3 3 2 2 1 1 1 1 1 1 0 0 0 1 3 5 4 2 -1 -2 -4 -3 -2 -1 -1 -0 0 0 0 0 0 0 0 0 0 0 0 1 1 1 1 1 2 2 3 3 3 3 3 3 3 3 3 3 2 -0 -4 -8 -10 -10 -9 -8 -7 -7 -6 -6 -6 -6 -6 -7 -7
-3 -2 0 2 2 2 2 1 1 1 0 0 0 -0 -0 0 1 2 5 5 2 -0 -1 -3 -4 -3 -3 -2 -1 -0 -0 0 0 1 1 1 0 1 1 1 1 1 1 1 2 2 3 3 3 3 3 3 3 3 3 3 3 1 -3 -8 -11 -11 -10 -8 -7 -6 -5 -4 -4 -4 -4 -4 -5 -5
-1 -2 -2 -1 -0 0 1 1 0 0 -0 -0 -0 -0 0 0 1 2 4 4 2 0 -0 -2 -3 -2 -2 -1 1 1 -0 -1 -0 0 1 1 1 1 1 1 1 1 1 2 2 3 3 3 3 4 4 4 3 3 3 3 1 -3 -8 -11 -12 -11 -9 -7 -6 -5 -4 -4 -3 -3 -3 -3 -3 -4
3 2 1 2 2 1 1 0 -0 -0 -0 0 0 -0 0 0 1 2 3 2 1 1 2 -0 -2 -2 -0 0 1 2 1 -0 -0 0 1 1 2 2 3 2 2 2 2 2 3 3 3 3 4 4 4 4 3 3 2 -0 -4 -8 -10 -11 -10 -9 -7 -6 -5 -4 -4 -3 -3 -3 -3 -3 -4 -5
4 4 4 5 5 5 4 3 3 2 1 1 1 0 1 1 1 1 1 1 1 2 3 2 0 0 0 1 1 2 2 1 0 1 1 2 2 3 3 3 3 3 3 3 3 3 4 4 4 4 3 3 3 1 -1 -5 -9 -10 -10 -10 -9 -8 -7 -6 -5 -5 -4 -4 -4 -4 -5 -6 -6 -7
4 4 4 5 5 5 5 5 5 5 4 2 2 1 1 1 1 1 1 1 2 2 3 3 2 2 2 2 2 2 2 2 2 2 2 2 3 3 4 3 3 3 4 4 4 4 4 4 3 3 3 2 0 -3 -7 -10 -11 -11 -11 -11 -11 -10 -9 -8 -8 -7 -7 -7 -7 -8 -8 -8 -8 -7
5 5 4 5 5 5 5 5 5 6 5 5 3 3 2 2 2 2 2 2 3 3 4 3 3 2 2 2 3 3 3 3 3 3 3 3 4 4 4 4 4 4 4 4 4 4 4 4 3 3 1 -1 -5 -8 -10 -11 -11 -11 -12 -12 -12 -12 -11 -11 -10 -10 -9 -9 -9 -9 -8 -8 -8 -7
6 6 6 5 5 4 4 4 4 5 5 5 5 4 4 3 3 3 3 3 4 4 4 3 3 3 3 3 3 3 4 4 4 4 4 4 4 4 4 4 4 4 4 4 4 4 4 3 2 -1 -4 -7 -10 -10 -10 -10 -10 -11 -11 -11 -12 -12 -11 -11 -11 -10 -9 -9 -9 -9 -9 -9 -8 -8
5 6 6 6 6 5 5 4 4 5 5 5 5 6 6 5 4 4 3 4 4 4 4 4 4 4 4 4 4 4 4 4 4 5 5 4 5 4 4 4 4 4 4 4 4 3 1 -1 -4 -7 -9 -10 -10 -10 -9 -9 -9 -9 -9 -10 -10 -11 -10 -10 -10 -10 -10 -10 -10 -9 -9 -8 -8 -7
4 5 5 5 5 6 5 5 5 5 5 5 6 6 6 6 5 4 4 4 4 4 4 4 4 5 5 5 5 4 4 4 4 4 4 4 4 5 5 5 5 4 3 2 -0 -3 -6 -8 -9 -9 -9 -9 -8 -8 -8 -8 -8 -8 -9 -9 -9 -9 -9 -9 -9 -9 -9 -9 -8 -8 -7 -7 -7 -6
4 4 4 4 5 5 5 4 4 5 5 5 6 7 7 7 6 5 5 5 4 4 4 4 4 4 3 3 2 1 -0 1 2 4 4 5 5 5 4 3 1 -1 -4 -6 -8 -9 -9 -10 -9 -9 -9 -9 -9 -8 -9 -9 -9 -9 -9 -9 -9 -9 -9 -9 -9 -8 -8 -8 -7 -7 -6 -6 -6 -6
5 5 5 4 4 4 4 4 5 6 6 6 6 7 7 7 7 6 6 6 5 3 2 1 -1 -2 -3 -4 -5 -6 -6 -3 -0 2 3 3 2 0 -2 -5 -7 -9 -10 -11 -10 -9 -9 -10 -10 -10 -10 -10 -10 -10 -10 -11 -11 -12 -12 -11 -10 -10 -9 -8 -8 -7 -6 -6 -6 -6 -6 -6 -6 -6
5 5 5 5 4 4 4 5 6 7 7 7 7 7 7 7 7 6 5 3 0 -3 -5 -7 -8 -9 -9 -10 -9 -9 -8 -6 -4 -2 -2 -3 -5 -8 -10 -10 -11 -11 -11 -11 -10 -10 -9 -10 -10 -10 -11 -11 -11 -12 -12 -12 -13 -13 -12 -11 -10 -9 -8 -7 -7 -6 -6 -6 -6 -5 -5 -5 -5 -5
6 5 5 5 4 4 4 5 6 7 7 7 7 7 7 7 6 3 -1 -5 -8 -10 -11 -11 -10 -10 -9 -9 -9 -8 -7 -6 -6 -6 -7 -8 -10 -10 -10 -10 -10 -10 -10 -10 -10 -10 -9 -10 -10 -11 -11 -11 -12 -12 -13 -13 -12 -12 -11 -10 -9 -8 -8 -7 -6 -6 -5 -5 -5 -5 -5 -5 -5 -5
6 5 5 5 4 4 5 6 6 7 6 7 7 6 5 4 1 -4 -8 -10 -11 -12 -11 -10 -9 -8 -7 -7 -6 -5 -5 -5 -6 -8 -9 -10 -10 -10 -10 -10 -9 -9 -9 -9 -10 -10 -10 -10 -10 -10 -12 -12 -13 -13 -12 -12 -12 -11 -10 -9 -9 -8 -7 -6 -6 -5 -5 -5 -5 -5 -5 -5 -5 -5
5 5 5 5 4 5 6 6 5 5 5 5 5 4 2 0 -2 -5 -8 -10 -11 -11 -9 -8 -7 -6 -5 -4 -4 -4 -5 -6 -8 -9 -9 -10 -10 -9 -9 -9 -9 -8 -8 -9 -9 -9 -9 -10 -11 -11 -12 -12 -12 -12 -11 -10 -10 -10 -9 -9 -8 -7 -6 -6 -5 -5 -5 -5 -5 -5 -5 -5 -5 -5
5 6 6 5 5 6 6 6 4 3 3 3 3 2 1 -1 -3 -6 -9 -11 -10 -8 -7 -6 -5 -4 -3 -3 -4 -6 -7 -8 -9 -9 -9 -9 -8 -8 -8 -8 -8 -8 -8 -9 -10 -10 -11 -11 -12 -12 -11 -11 -11 -11 -10 -9 -9 -9 -9 -8 -7 -7 -6 -6 -5 -5 -5 -5 -5 -5 -5 -5 -5 -5
6 6 6 5 5 6 6 5 4 4 4 3 2 3 1 -3 -7 -9 -11 -10 -8 -7 -6 -5 -4 -3 -3 -4 -6 -7 -8 -8 -8 -8 -8 -7 -7 -7 -8 -8 -8 -9 -9 -10 -11 -12 -12 -12 -11 -11 -10 -9 -9 -9 -9 -9 -9 -8 -8 -8 -7 -6 -6 -5 -5 -5 -5 -5 -5 -5 -5 -5 -5 -5
6 6 5 5 5 5 5 5 5 5 5 4 4 4 0 -6 -11 -12 -11 -9 -7 -6 -5 -4 -3 -4 -5 -6 -7 -7 -7 -7 -7 -7 -7 -7 -8 -8 -9 -9 -10 -10 -11 -12 -12 -12 -12 -11 -10 -10 -9 -8 -8 -8 -8 -8 -8 -8 -8 -7 -7 -6 -5 -5 -5 -5 -5 -5 -5 -5 -5 -5 -5 -5
5 5 4 4 5 5 5 5 5 5 5 5 5 3 -3 -11 -13 -14 -12 -9 -7 -5 -4 -4 -4 -6 -7 -7 -7 -7 -7 -7 -7 -7 -7 -8 -9 -9 -10 -11 -11 -12 -12 -12 -12 -12 -11 -10 -9 -9 -8 -8 -8 -7 -7 -7 -7 -7 -7 -6 -6 -6 -5 -5 -5 -5 -5 -5 -5 -5 -5 -5 -5 -5
4 3 2 2 4 4 4 5 5 5 5 6 5 1 -8 -14 -13 -13 -12 -8 -6 -5 -4 -5 -6 -7 -7 -7 -7 -7 -7 -7 -8 -8 -8 -9 -10 -10 -11 -12 -13 -13 -12 -12 -11 -11 -10 -9 -9 -8 -8 -7 -7 -7 -7 -7 -7 -7 -6 -6 -6 -6 -5 -5 -5 -4 -4 -5 -5 -5 -5 -5 -5 -5
2 0 -2 -0 3 4 4 5 5 5 6 5 2 -5 -12 -14 -13 -13 -10 -7 -6 -6 -6 -6 -6 -6 -7 -7 -7 -7 -7 -8 -8 -9 -9 -10 -10 -11 -12 -13 -13 -12 -12 -11 -11 -10 -9 -9 -8 -8 -7 -7 -7 -7 -6 -6 -6 -6 -6 -5 -5 -5 -5 -5 -4 -4 -5 -5 -6 -6 -6 -6 -6 -6
-1 -4 -6 -1 3 5 5 5 5 6 6 3 -4 -11 -11 -11 -11 -10 -7 -6 -6 -6 -6 -6 -6 -6 -6 -7 -7 -7 -8 -8 -9 -9 -10 -11 -11 -13 -14 -14 -13 -13 -12 -11 -10 -10 -9 -8 -8 -7 -7 -7 -6 -6 -6 -6 -6 -6 -6 -5 -5 -5 -5 -4 -4 -5 -6 -6 -7 -7 -6 -6 -6 -5
-2 -5 -4 1 5 6 5 5 6 5 3 -1 -8 -9 -6 -5 -5 -4 -4 -5 -5 -5 -5 -6 -6 -6 -7 -7 -8 -8 -9 -9 -10 -10 -11 -12 -13 -14 -15 -14 -14 -14 -12 -11 -10 -9 -9 -8 -7 -7 -6 -6 -6 -6 -6 -6 -6 -5 -5 -5 -5 -5 -5 -5 -5 -6 -6 -6 -6 -6 -6 -6 -6 -5
-2 -4 -4 -1 3 5 5 5 5 3 -1 -5 -6 -4 -3 -2 -2 -3 -4 -4 -5 -5 -6 -6 -6 -7 -7 -8 -8 -9 -9 -10 -10 -11 -12 -14 -15 -15 -16 -15 -15 -15 -13 -12 -11 -9 -8 -7 -7 -6 -6 -6 -5 -5 -5 -6 -6 -5 -5 -5 -5 -5 -5 -5 -6 -6 -6 -6 -6 -6 -6 -6 -6 -5
-0 -2 -5 -6 -2 1 3 4 3 1 -3 -3 -2 -2 -2 -2 -2 -3 -4 -5 -5 -6 -6 -6 -6 -7 -7 -8 -8 -9 -9 -10 -11 -13 -14 -15 -15 -16 -16 -16 -16 -15 -14 -12 -10 -9 -8 -7 -6 -6 -6 -6 -5 -5 -5 -5 -5 -5 -5 -5 -5 -5 -5 -5 -5 -5 -5 -5 -5 -6 -6 -6 -5 -5
1 -1 -3 -5 -5 -4 -2 0 1 -0 -2 -1 -1 -2 -3 -3 -3 -3 -4 -4 -4 -4 -4 -4 -5 -5 -6 -7 -8 -9 -9 -11 -12 -14 -15 -15 -16 -16 -16 -16 -16 -16 -13 -11 -9 -8 -7 -7 -6 -6 -6 -6 -6 -5 -5 -5 -5 -5 -5 -5 -5 -5 -5 -5 -4 -4 -4 -5 -5 -5 -6 -5 -5 -5
1 -0 -2 -3 -3 -3 -3 -2 -1 -0 -1 -1 -1 -2 -2 -2 -3 -3 -3 -2 -2 -2 -3 -3 -4 -5 -6 -7 -8 -8 -10 -11 -13 -14 -15 -15 -15 -15 -15 -16 -16 -14 -12 -10 -8 -7 -6 -6 -6 -6 -6 -6 -6 -6 -5 -4 -4 -5 -5 -5 -5 -5 -4 -4 -4 -4 -4 -4 -5 -5 -5 -5 -5 -5
0 -0 -1 -1 -2 -1 -2 -2 -1 -0 0 -1 -1 -2 -2 -2 -2 -2 -2 -1 -1 -2 -3 -3 -4 -5 -6 -7 -7 -8 -10 -12 -13 -14 -15 -14 -14 -14 -15 -15 -15 -13 -11 -9 -7 -6 -5 -5 -5 -5 -5 -6 -6 -6 -5 -5 -4 -5 -5 -5 -4 -4 -4 -4 -4 -4 -4 -5 -5 -5 -5 -5 -5 -5
1 0 -0 -0 -1 -1 -1 -1 -1 0 0 -0 -1 -1 -2 -2 -2 -2 -1 -1 -1 -2 -3 -3 -4 -4 -5 -6 -7 -9 -10 -12 -13 -14 -14 -13 -13 -14 -14 -15 -14 -12 -10 -8 -7 -5 -5 -5 -5 -4 -5 -5 -5 -5 -5 -5 -5 -4 -4 -4 -4 -4 -4 -4 -4 -4 -5 -5 -5 -6 -6 -5 -5 -5
2 1 0 -0 -0 -1 -1 -1 -1 -0 0 -0 -0 -1 -1 -2 -2 -1 -1 -1 -2 -3 -3 -4 -4 -4 -5 -6 -8 -9 -11 -12 -13 -13 -13 -12 -13 -14 -14 -14 -14 -11 -9 -7 -6 -6 -5 -5 -4 -4 -5 -5 -5 -5 -5 -5 -5 -5 -4 -4 -4 -4 -4 -4 -4 -5 -5 -6 -6 -6 -5 -5 -5 -5
2 2 1 1 0 0 -0 -0 -0 0 0 -0 -0 -0 -1 -1 -1 -1 -1 -2 -2 -3 -3 -4 -4 -5 -6 -7 -9 -11 -12 -12 -13 -12 -12 -12 -13 -14 -14 -14 -12 -9 -8 -7 -7 -6 -5 -4 -4 -5 -5 -4 -4 -4 -4 -5 -5 -5 -4 -4 -4 -4 -4 -4 -4 -5 -6 -6 -6 -6 -5 -5 -6 -6
1 1 1 1 1 0 0 0 0 -0 -1 -1 -1 -1 -1 -1 -2 -2 -1 -2 -2 -3 -3 -3 -4 -5 -7 -8 -10 -12 -12 -12 -12 -12 -12 -13 -14 -14 -15 -13 -10 -8 -7 -7 -6 -6 -5 -5 -5 -5 -4 -4 -4 -4 -4 -4 -4 -4 -4 -4 -4 -4 -4 -4 -5 -5 -6 -6 -6 -6 -5 -6 -6 -5
1 1 0 0 -0 -0 -0 -0 -0 -1 -1 -1 -1 -1 -1 -2 -2 -2 -2 -2 -3 -3 -3 -3 -5 -6 -8 -10 -12 -12 -12 -12 -12 -12 -13 -14 -15 -15 -15 -12 -9 -7 -7 -6 -5 -5 -5 -5 -5 -4 -4 -4 -4 -4 -4 -4 -4 -4 -4 -4 -4 -4 -4 -4 -5 -6 -6 -7 -6 -6 -6 -6 -5 -5
-0 0 0 0 0 0 -0 -0 -0 -0 -1 -0 -0 -0 -1 -2 -2 -2 -2 -3 -3 -3 -3 -5 -6 -8 -9 -11 -12 -12 -11 -11 -12 -13 -14 -16 -16 -16 -13 -10 -8 -7 -6 -6 -6 -6 -6 -6 -5 -4 -4 -4 -4 -4 -4 -4 -4 -4 -4 -4 -4 -4 -4 -4 -5 -6 -6 -7 -7 -6 -6 -6 -6 -6
-1 -0 0 0 0 0 0 0 0 -0 -1 -1 -0 -0 -1 -2 -2 -2 -3 -3 -4 -4 -5 -6 -7 -9 -10 -11 -12 -11 -11 -11 -12 -14 -16 -16 -16 -14 -11 -9 -8 -6 -6 -6 -6 -6 -6 -6 -5 -4 -4 -4 -4 -4 -4 -4 -4 -3 -3 -3 -4 -3 -4 -5 -5 -6 -6 -7 -7 -6 -6 -6 -6 -6
-1 -0 0 0 -0 -0 0 -0 -0 -1 -1 -1 -0 -1 -2 -2 -2 -3 -3 -3 -4 -5 -6 -7 -9 -10 -11 -12 -11 -10 -10 -11 -14 -17 -17 -15 -13 -11 -10 -8 -8 -7 -6 -5 -6 -7 -7 -5 -4 -4 -4 -4 -4 -4 -4 -4 -4 -3 -4 -4 -4 -4 -4 -5 -5 -6 -7 -7 -7 -6 -6 -6 -6 -6
-1 -1 -1 -1 -1 -1 -1 -1 -1 -1 -1 -1 -1 -1 -1 -2 -3 -3 -3 -3 -4 -6 -7 -8 -10 -11 -11 -11 -10 -10 -11 -13 -17 -18 -16 -13 -12 -10 -8 -7 -7 -7 -6 -5 -6 -7 -6 -5 -4 -5 -5 -4 -4 -4 -4 -4 -3 -3 -4 -4 -4 -4 -5 -5 -5 -6 -7 -7 -6 -6 -6 -6 -6 -6
Wind_Speed
1 1 1 2 4 6 7 8 8 9 10 11 10 6 7 6 11 13 13 12 11 11 12 12 11 11 10 9 8 8 7 7 7 8 7 7 7 8 9 9 10 9 10 10 11 11 12 12 11 10 9 8 8 9 9 11 12 13 15 16 17 18 18 18 18 18 18 17 17 17 17 17 18 18
1 1 1 1 4 5 7 9 10 11 12 11 10 7 6 7 8 9 11 11 10 10 10 10 10 10 9 8 7 6 6 7 7 7 8 8 9 9 8 8 8 7 7 8 8 9 10 10 11 11 11 12 12 12 12 13 14 15 17 19 20 22 22 21 21 20 20 19 19 19 19 19 19 19
3 1 0 1 4 6 9 11 12 11 11 11 9 6 2 4 6 6 7 9 11 10 9 9 9 9 8 6 5 5 6 6 7 8 9 9 9 8 7 6 5 5 5 6 7 8 9 10 11 12 14 15 16 16 17 17 18 19 21 23 24 25 25 25 23 22 21 21 20 20 20 20 21 21
3 2 2 2 3 7 10 11 12 11 10 9 6 3 2 1 2 3 4 5 10 12 11 10 10 9 7 6 6 6 6 7 8 9 9 9 8 7 6 5 4 4 4 5 7 9 10 12 13 14 15 16 18 20 21 23 24 25 26 27 28 29 28 27 25 23 22 22 22 21 21 22 22 22
3 2 3 3 4 6 8 9 9 8 7 6 4 3 3 3 3 1 1 3 7 10 12 12 12 10 9 8 8 8 8 8 8 8 8 8 7 6 5 2 2 2 4 5 7 9 11 12 14 15 16 18 20 22 24 25 27 28 29 30 30 30 29 27 25 23 22 22 22 23 23 24 24 24
4 2 2 4 5 5 5 6 6 5 5 4 4 4 4 5 6 6 4 2 3 6 10 12 13 12 10 10 10 10 10 10 9 8 7 6 5 3 2 1 2 4 5 6 8 9 10 12 14 15 17 19 21 23 24 26 28 30 31 32 31 30 28 26 24 22 22 21 22 23 25 26 26 27
6 5 3 3 4 5 6 6 5 6 5 5 5 6 8 9 9 9 9 6 3 4 7 11 12 11 11 11 11 11 10 9 8 7 6 4 3 3 3 4 5 6 7 8 9 10 11 12 14 16 18 20 21 22 24 25 28 30 32 32 30 29 26 24 23 21 21 21 22 23 25 26 27 28
7 7 7 6 6 6 7 7 7 7 7 7 8 9 11 12 12 12 11 9 5 4 6 9 12 11 10 10 10 9 8 8 7 7 6 6 6 6 6 7 8 9 9 9 10 11 12 14 15 17 18 19 20 21 23 26 29 31 32 31 28 27 25 22 21 20 20 20 21 23 24 26 27 29
5 6 7 8 8 8 8 8 8 8 8 8 8 8 10 12 12 12 12 10 6 4 5 8 11 12 11 10 9 9 8 7 6 6 6 7 7 8 9 10 10 11 11 11 12 13 14 15 16 17 18 19 21 23 25 28 31 32 31 29 26 24 23 21 21 20 20 21 22 23 24 25 27 29
4 5 6 6 6 7 8 8 8 8 8 8 7 6 6 8 10 10 10 10 8 6 6 8 10 12 12 10 9 9 10 10 9 8 8 8 8 9 10 11 12 12 12 13 14 15 16 16 17 18 20 21 23 25 28 30 31 30 28 26 24 23 21 20 20 20 21 21 22 23 24 25 27 29
5 6 6 6 6 6 7 7 8 8 8 8 8 7 5 6 7 9 10 11 11 10 9 10 11 13 12 11 9 9 10 11 11 11 10 10 10 10 10 11 12 13 13 14 15 16 16 17 19 20 21 23 25 27 29 29 28 27 25 23 22 21 20 20 20 20 21 21 22 23 24 26 28 29
6 7 7 8 8 8 8 8 8 8 9 8 8 7 7 6 7 8 10 12 12 11 10 11 12 13 12 11 11 10 10 11 12 12 12 12 12 11 11 12 12 13 14 15 15 16 18 19 20 22 24 26 28 28 28 27 25 24 23 22 21 20 20 20 21 21 22 23 24 25 26 27 28 28
9 9 10 10 11 11 11 10 10 10 11 11 10 9 8 9 9 10 11 12 12 12 12 12 12 13 13 12 12 11 10 11 12 12 12 12 12 12 12 12 13 13 15 16 17 17 19 20 22 24 27 28 28 27 26 25 24 24 23 23 23 23 23 23 23 24 25 25 26 27 27 27 27 26
12 12 12 13 13 14 14 14 14 14 13 13 13 12 11 10 11 12 12 12 12 12 12 13 13 13 13 13 12 12 12 11 12 13 13 13 13 13 13 13 14 15 16 17 18 19 21 23 25 27 27 27 26 26 25 25 25 25 25 25 26 26 26 27 27 27 28 28 29 29 29 28 28 28
15 15 16 15 15 16 16 17 18 17 17 16 15 16 15 14 13 13 13 13 13 13 13 14 14 14 13 13 13 13 13 13 13 14 15 15 14 14 14 14 15 16 17 18 20 22 25 26 27 26 26 25 26 26 25 25 25 26 26 27 28 28 29 29 30 30 31 31 31 31 30 30 30 30
17 18 18 18 18 18 18 19 20 20 20 18 17 17 17 17 17 17 16 15 14 14 14 14 14 14 14 14 14 14 14 14 14 15 15 16 16 15 15 15 16 18 19 21 23 24 25 25 24 24 24 25 25 25 25 26 26 27 28 29 30 30 31 31 31 31 31 31 31 30 30 30 30 30
17 18 19 20 20 20 21 21 22 22 21 20 18 18 17 18 18 18 18 17 16 16 16 16 16 16 16 16 16 15 15 14 14 14 14 15 15 15 16 17 18 20 21 22 22 22 22 22 22 22 24 24 24 25 26 27 28 30 31 31 32 32 32 32 32 31 30 29 28 27 27 27 28 28
19 19 20 20 21 21 21 21 21 22 22 21 19 18 18 19 19 19 18 18 18 18 18 17 17 17 17 17 16 15 14 14 14 14 14 14 15 15 16 17 18 19 19 20 20 21 21 22 22 23 24 25 25 27 28 29 30 31 32 32 32 32 33 33 33 31 29 28 26 25 25 25 25 26
21 21 22 22 21 21 20 20 19 20 20 20 20 20 20 20 19 19 18 18 18 18 17 16 16 15 15 14 14 14 14 14 14 14 14 14 15 15 16 16 17 17 18 19 20 21 22 23 24 24 25 26 27 27 28 30 30 31 31 31 31 32 32 33 31 30 28 27 26 26 25 25 25 25
23 23 24 23 21 19 18 18 17 18 19 20 20 20 20 19 18 18 18 18 17 16 15 14 13 13 12 12 12 12 13 13 13 13 13 13 14 14 15 15 16 17 19 20 21 22 23 24 26 27 27 28 29 28 28 29 29 29 29 30 31 31 31 31 29 28 27 26 26 26 26 26 25 25
25 25 24 22 19 17 17 16 16 17 19 20 20 19 19 18 17 17 16 15 15 14 13 12 11 11 10 10 11 11 10 10 11 11 11 12 13 13 14 15 16 17 19 20 21 23 24 25 28 30 30 31 31 30 29 28 27 28 29 30 31 31 29 28 26 25 25 25 26 26 26 26 25 24
26 25 23 20 17 16 15 15 16 17 18 19 19 18 17 17 16 15 14 14 13 13 12 11 11 10 10 10 10 10 10 10 11 12 12 12 13 13 14 15 16 18 19 20 22 23 24 26 28 31 33 33 32 30 29 28 28 28 29 30 30 29 27 25 23 23 24 24 24 24 24 25 24 23
25 22 20 19 17 16 15 15 15 15 16 17 17 16 15 16 16 15 14 14 13 13 12 11 11 10 10 9 9 10 10 11 11 11 11 11 12 13 14 15 16 18 19 21 22 24 26 27 28 30 32 34 33 31 29 29 29 29 29 29 29 27 25 23 22 22 22 22 22 22 23 23 23 23
21 20 19 19 17 16 16 16 15 14 15 16 16 15 15 15 15 15 15 15 14 13 12 12 11 10 10 10 10 10 10 10 10 10 10 11 12 12 13 15 16 18 20 22 24 25 27 28 29 29 29 30 32 32 31 31 30 29 28 27 28 27 24 23 22 20 20 20 20 21 21 21 21 22
18 19 19 19 17 17 17 17 16 15 15 16 16 16 15 14 14 15 15 15 15 14 13 12 11 10 10 9 9 8 8 8 9 9 10 11 12 13 14 16 17 19 21 23 24 25 26 27 27 27 27 28 30 32 33 32 30 29 27 26 26 24 22 21 21 20 19 19 19 20 20 20 19 20
18 19 19 19 18 18 18 18 18 18 18 18 18 17 16 16 16 17 16 16 15 14 13 12 11 10 9 8 7 7 7 7 8 9 11 12 14 15 16 18 19 20 21 23 23 24 24 24 25 26 26 27 29 31 33 33 32 30 27 23 20 20 20 20 21 20 19 19 19 19 19 19 19 20
18 18 18 18 19 20 20 20 20 20 20 20 20 20 19 19 20 19 18 17 15 14 12 12 10 9 7 6 5 6 7 8 10 11 13 14 15 16 17 18 19 20 21 21 22 23 23 24 24 25 25 27 29 30 31 32 32 30 25 19 15 15 18 21 21 20 19 19 19 20 20 21 21 22
22 21 19 19 21 22 22 22 22 23 23 23 22 21 22 22 21 20 18 16 15 14 12 11 9 7 5 4 5 6 8 9 11 12 13 14 15 17 18 19 19 20 21 21 22 23 23 24 23 24 24 25 26 28 29 31 30 26 22 19 16 15 17 20 20 19 19 20 21 22 22 22 22 22
25 24 23 22 22 23 24 24 24 25 25 23 22 22 23 22 21 19 17 16 14 13 10 8 6 5 4 4 5 7 8 9 11 12 13 14 16 16 17 18 19 20 20 21 22 22 22 23 22 22 22 22 23 25 26 27 26 22 21 22 20 18 17 18 18 18 19 20 21 21 21 21 21 21
27 26 25 24 24 26 27 26 26 28 27 25 23 22 21 20 18 17 16 14 12 10 8 7 6 4 4 4 5 6 8 9 10 12 13 14 15 16 17 17 18 19 19 21 22 22 22 21 21 21 21 21 22 22 22 24 24 22 20 21 21 20 18 17 17 18 18 19 19 19 19 19 20 21
27 28 26 25 25 28 29 28 29 30 29 27 25 22 19 17 15 13 11 9 8 7 7 6 5 4 3 4 5 6 8 9 10 11 12 13 14 15 16 16 17 18 19 20 21 22 21 20 19 20 20 21 20 20 19 21 23 24 21 19 20 19 18 17 17 17 17 19 20 21 21 21 22 22
26 28 27 27 27 27 27 29 31 29 23 21 20 18 16 13 11 11 10 9 8 7 6 5 3 2 2 3 5 7 8 9 10 11 11 12 13 14 16 17 19 19 20 20 20 20 18 18 18 18 18 19 20 20 19 19 21 22 21 19 17 16 14 14 16 17 18 20 21 23 24 24 23 23
22 24 26 28 29 26 24 25 28 26 19 17 17 17 15 12 10 10 9 7 6 6 4 2 1 2 3 5 6 7 8 9 10 10 11 12 13 15 16 18 20 21 22 21 19 18 17 16 16 16 16 17 18 18 18 18 19 20 19 17 15 13 12 14 17 20 21 22 23 25 27 25 23 23
18 22 26 29 31 31 30 26 22 21 21 20 18 17 16 15 13 12 9 6 5 5 3 3 4 5 6 6 7 7 8 9 10 10 11 12 14 16 17 19 20 21 21 20 19 18 17 17 16 16 16 15 14 12 13 15 17 17 16 13 12 13 15 17 20 21 21 22 25 27 27 24 21 20
14 18 23 28 31 35 36 33 27 24 25 25 22 20 19 18 14 12 10 8 7 6 6 6 6 6 6 6 6 7 9 9 9 10 11 12 14 16 17 19 21 20 20 19 18 16 17 18 19 20 19 18 15 11 9 11 13 14 12 11 11 15 19 20 19 19 20 22 24 25 25 22 19 17
13 13 16 20 24 28 32 32 30 28 27 27 26 25 23 20 16 13 14 13 11 8 7 6 5 5 5 6 7 8 9 9 9 10 11 13 15 16 17 19 20 19 18 17 14 13 15 17 20 21 22 23 21 16 12 10 11 12 11 11 14 18 19 18 18 19 21 22 22 23 23 21 18 15
16 16 16 17 19 23 27 30 30 29 29 30 30 30 28 24 21 19 18 16 12 9 7 5 4 4 5 7 7 8 9 9 9 10 11 13 15 16 17 18 18 18 17 14 11 11 14 16 18 20 22 23 24 22 17 10 7 9 12 15 17 18 18 17 19 20 21 21 21 21 20 17 15 14
19 20 20 20 19 21 25 28 30 30 31 32 32 32 30 27 23 20 17 15 12 9 6 4 3 4 5 6 7 8 8 8 9 10 12 13 14 15 17 18 17 17 15 11 8 8 13 15 16 18 20 22 23 24 21 13 8 9 13 16 17 17 16 17 20 21 21 20 20 19 17 14 13 13
24 24 25 24 23 23 25 28 31 33 33 33 33 30 27 24 22 20 18 16 12 8 5 3 3 5 5 6 7 7 7 8 9 11 12 13 14 15 16 17 16 15 12 8 7 8 12 14 16 18 20 21 21 21 20 16 12 11 12 14 15 15 16 18 20 20 20 19 19 16 13 10 11 12
24 27 28 27 26 25 27 30 32 33 33 31 29 26 23 24 25 23 20 17 13 9 5 4 5 5 5 5 5 6 7 8 10 11 11 12 13 15 16 15 14 13 10 8 8 10 13 15 17 19 21 21 19 16 15 14 13 12 11 12 14 14 15 18 19 18 18 18 16 14 11 8 8 9
21 24 26 25 22 21 23 26 27 28 26 25 23 23 24 24 24 22 19 16 12 8 5 5 5 5 4 4 5 6 7 9 10 11 12 12 13 14 15 13 11 10 8 8 9 11 13 16 19 20 20 18 14 12 11 12 13 12 12 13 14 13 15 17 17 16 16 15 14 13 12 9 7 7
18 18 18 18 16 15 16 18 21 22 23 24 25 25 25 24 22 20 18 15 11 8 6 6 6 5 4 4 5 7 9 10 10 11 12 12 13 13 12 10 7 7 8 10 11 11 12 15 18 19 18 15 12 11 12 13 14 14 14 14 14 13 14 16 15 14 14 14 13 13 14 12 11 10
11 10 10 11 11 11 11 12 14 15 16 19 23 25 26 26 24 20 17 14 10 8 7 6 5 4 4 5 6 8 10 10 11 12 12 12 12 11 9 7 6 6 8 11 12 11 11 13 16 17 16 14 12 12 13 14 14 15 15 15 13 12 13 15 13 11 12 12 12 13 13 14 14 13
6 6 7 7 6 7 8 10 12 14 15 17 21 25 27 27 24 20 16 13 9 7 6 5 4 4 4 6 7 9 10 11 11 11 10 10 10 9 7 7 7 7 8 11 12 12 11 11 13 15 15 14 12 13 14 14 14 14 15 14 12 11 12 13 11 10 10 11 11 12 12 12 12 12
3 4 5 4 4 4 6 8 10 14 15 16 20 23 25 25 21 16 12 10 7 6 6 4 4 4 5 7 9 10 10 10 11 10 9 9 8 6 6 7 8 7 8 10 12 11 10 10 11 13 15 15 14 13 13 13 13 13 13 13 11 11 11 11 9 9 10 10 11 12 13 12 11 11
Wind_Direction
234 258 289 210 198 193 185 178 168 160 171 186 173 112 63 99 130 136 143 143 139 138 135 131 129 127 124 121 119 117 117 115 114 114 111 110 113 115 117 117 113 106 96 85 75 68 64 59 55 49 40 30 21 13 6 1 358 355 353 352 350 349 347 344 342 339 335 332 328 323 319 315 312 310
155 191 286 198 187 187 178 167 158 157 169 177 163 130 85 67 81 109 128 139 144 144 143 139 136 136 134 130 130 131 130 128 125 122 120 121 125 127 127 124 116 106 94 81 68 58 52 49 46 41 30 21 14 8 3 358 354 352 351 349 348 347 345 344 342 339 336 334 330 326 322 319 317 315
112 134 138 150 159 163 163 155 147 152 166 170 162 154 118 63 64 74 93 125 143 148 151 150 147 147 145 142 146 147 140 136 132 127 126 130 134 134 129 119 107 96 77 60 43 31 25 21 18 15 10 5 1 358 357 355 354 352 351 349 348 346 345 344 343 340 337 334 331 327 323 320 317 315
104 101 105 121 140 152 154 149 145 151 165 173 177 195 254 339 75 69 59 104 139 150 158 163 160 153 148 148 146 143 140 139 135 132 131 133 135 134 128 115 94 72 46 27 16 8 6 3 0 359 356 353 350 349 349 349 349 348 347 346 345 344 343 343 342 339 336 332 329 326 323 320 317 315
121 97 102 122 133 141 146 146 150 159 168 180 208 240 269 281 258 218 87 107 142 153 159 164 163 153 146 143 137 134 138 140 136 132 130 130 130 130 128 112 59 18 2 357 355 354 354 352 349 347 345 343 343 343 344 344 344 343 343 342 342 341 340 339 338 336 333 328 325 323 321 320 318 317
171 150 122 132 140 142 146 155 166 179 188 207 236 261 282 288 275 250 228 204 172 166 162 164 165 156 145 139 136 136 139 140 137 134 132 131 131 138 152 262 309 314 321 330 336 340 340 339 337 336 335 336 337 338 338 338 338 338 338 338 337 336 335 335 334 332 328 325 321 320 319 319 318 317
202 202 189 172 166 165 171 183 197 203 212 233 253 269 280 284 277 256 237 229 217 197 179 170 169 163 150 142 142 146 149 151 151 151 157 168 184 214 248 276 292 301 306 312 319 322 322 323 324 325 327 329 331 331 331 332 334 334 335 334 333 333 332 332 330 328 324 321 317 316 316 316 316 316
212 215 213 210 207 202 199 206 219 226 232 244 255 264 266 267 266 252 235 228 232 236 212 184 173 171 165 157 157 159 162 168 175 182 193 208 222 239 256 273 288 294 294 298 302 305 306 310 314 318 321 323 322 323 326 328 330 331 331 331 330 330 330 329 327 324 320 317 314 313 312 313 313 314
218 223 223 222 222 223 224 226 234 241 247 250 253 258 256 255 255 245 230 228 233 247 237 205 184 179 178 178 178 181 184 189 201 213 221 228 239 250 260 268 278 284 286 287 290 294 298 303 309 313 315 315 316 318 321 323 325 326 326 326 326 325 325 324 322 319 316 314 312 311 310 311 312 314
244 243 240 239 240 241 242 245 250 257 263 267 266 262 252 247 245 233 221 221 225 225 225 215 200 189 188 190 194 199 205 211 218 226 232 237 245 255 261 264 270 274 277 279 282 288 294 299 305 308 310 311 313 314 317 319 321 322 322 322 322 321 320 317 315 313 311 310 309 308 308 309 311 312
265 267 262 260 263 266 266 265 268 273 274 275 275 272 263 247 233 217 206 209 218 221 215 211 206 201 201 204 206 209 216 222 227 233 238 243 250 258 263 264 266 268 271 275 280 286 292 297 302 305 307 309 311 314 317 319 321 321 321 321 320 318 315 311 308 306 304 303 302 302 303 304 306 308
271 275 275 274 275 279 279 278 280 282 280 275 269 266 261 251 234 217 211 216 225 228 221 212 210 211 215 218 218 219 223 229 235 240 244 249 255 259 259 257 260 265 270 275 280 287 293 298 301 304 307 310 314 317 319 320 320 320 320 320 318 315 311 307 303 300 298 297 297 297 299 301 303 305
275 277 275 274 276 279 279 277 276 277 279 276 268 259 251 246 241 235 232 234 235 232 226 220 218 221 225 227 229 234 239 241 243 246 247 250 255 256 254 254 258 266 273 279 284 289 293 297 301 305 309 312 315 318 319 320 320 321 321 321 320 317 314 310 307 304 303 302 302 303 303 303 303 303
278 280 279 277 277 279 280 280 277 275 273 272 269 263 255 248 245 244 242 241 238 234 232 230 229 230 232 234 237 241 247 251 252 252 251 251 253 252 252 256 263 270 276 282 287 291 296 301 306 310 312 314 317 319 320 321 322 322 323 322 321 318 316 314 312 310 309 309 308 308 306 304 302 300
278 278 278 278 277 276 278 280 279 277 273 268 264 260 257 252 247 244 243 242 240 237 235 234 234 235 237 239 241 244 247 250 251 251 252 253 253 255 256 260 268 276 282 287 293 298 303 306 309 311 312 315 317 319 321 322 322 322 321 320 318 316 314 312 311 310 310 309 308 307 305 302 299 297
277 275 275 276 275 274 275 278 278 275 271 266 261 256 253 251 248 245 243 240 239 237 235 235 235 236 238 240 244 248 251 252 250 249 250 252 254 257 261 267 276 284 289 294 298 301 304 306 307 310 312 315 318 320 321 321 321 320 319 317 315 314 312 311 310 310 310 309 308 306 303 300 298 295
277 276 276 276 276 275 275 277 275 270 265 261 258 253 248 244 243 243 242 240 239 238 237 237 239 242 245 248 251 255 257 257 255 253 253 255 257 262 268 276 284 289 293 296 299 301 303 306 309 314 316 319 321 322 321 320 319 317 316 315 314 313 313 313 313 314 313 312 310 307 304 301 298 296
276 277 278 278 278 277 276 275 270 263 258 255 253 248 243 240 240 241 243 244 245 244 243 244 246 248 251 253 257 261 263 263 263 263 265 268 273 278 285 289 293 296 299 301 304 306 308 310 313 316 317 318 319 319 318 317 316 315 314 313 313 313 314 316 318 319 318 317 314 311 308 305 302 300
277 279 280 280 280 279 275 269 260 254 252 251 248 243 239 238 240 243 246 248 248 247 246 247 248 249 252 256 259 264 268 270 272 274 277 281 286 291 296 298 300 302 303 305 307 308 310 312 312 313 313 313 313 315 315 314 315 315 314 313 314 315 317 319 320 320 319 318 316 314 313 311 309 306
277 279 282 282 280 277 269 260 251 247 246 244 242 240 239 240 243 244 244 244 243 243 243 244 245 247 250 255 259 261 264 266 269 274 279 285 291 295 298 301 302 302 302 304 306 308 311 313 312 311 312 311 311 314 315 315 316 316 316 316 317 318 320 320 320 320 319 317 316 316 317 317 316 313
277 279 281 279 274 268 258 247 241 240 241 240 239 240 242 243 242 238 235 235 235 237 238 239 242 245 249 253 255 256 258 263 270 280 287 292 296 298 300 300 301 302 303 306 308 310 312 313 311 311 311 311 313 316 317 317 318 318 318 318 318 319 320 321 320 317 315 314 314 316 318 319 319 316
276 276 274 269 264 257 248 239 236 238 240 239 238 236 235 233 233 232 232 234 234 234 235 237 239 242 245 248 252 258 266 276 284 291 294 296 297 299 301 301 302 304 306 308 311 311 312 312 311 312 313 313 315 318 319 319 320 320 319 319 319 320 322 321 317 314 311 311 312 315 318 320 319 317
273 270 264 259 254 248 239 235 235 236 237 235 233 229 226 227 231 235 236 236 235 234 234 235 238 241 245 251 260 269 277 283 289 292 294 296 298 299 301 302 304 308 309 311 313 313 312 314 315 316 317 317 317 320 320 319 320 321 322 321 321 322 322 319 315 310 307 307 310 314 318 319 318 315
266 262 257 255 251 242 236 234 233 234 234 232 228 228 232 237 239 239 237 234 234 234 235 236 240 243 249 257 264 271 277 283 287 292 294 297 299 301 304 306 310 313 313 314 316 316 316 317 317 318 318 316 316 318 319 319 320 322 324 325 323 322 321 318 314 310 306 306 309 312 314 314 313 311
262 258 257 256 252 244 237 233 230 232 235 233 230 234 242 245 242 239 238 236 235 234 235 238 241 244 249 255 260 266 274 282 288 294 298 302 306 309 314 316 317 318 318 317 318 318 317 318 318 318 317 315 314 315 316 317 319 322 326 327 323 321 323 321 316 314 312 309 309 308 307 305 304 303
259 259 259 259 257 252 245 239 234 234 235 235 236 240 242 239 237 237 236 235 234 234 235 236 239 242 246 251 258 267 279 289 299 305 308 311 314 316 318 319 319 320 319 318 319 319 318 318 319 318 317 315 314 314 314 316 320 325 330 330 323 322 325 323 319 319 317 312 309 306 302 300 299 298
258 259 262 263 262 259 254 247 241 239 239 238 238 240 238 235 235 235 233 232 232 232 232 233 234 237 241 248 264 283 297 305 310 312 313 314 316 317 318 319 320 321 322 322 323 323 322 321 321 319 316 314 312 313 314 318 324 330 334 332 326 323 324 322 321 321 318 314 312 309 304 302 300 298
261 261 263 262 259 257 254 250 246 244 242 240 238 238 236 234 233 232 229 228 227 227 227 228 227 229 238 258 282 295 302 307 309 309 311 314 317 319 321 323 325 327 329 329 328 326 324 322 320 316 313 311 311 313 317 321 328 335 336 332 329 324 322 322 322 321 318 316 315 313 310 309 307 304
264 264 262 258 254 252 249 245 242 241 237 234 234 235 234 232 230 227 225 223 223 223 221 219 218 225 243 265 283 293 300 303 305 309 314 318 322 325 328 331 332 333 333 331 329 327 324 322 318 313 312 312 313 317 322 326 330 336 336 331 327 324 324 325 323 319 318 318 318 318 319 319 318 315
266 266 262 254 248 248 246 241 240 239 233 227 226 226 226 226 224 223 222 220 220 216 210 207 212 221 240 263 281 292 299 303 308 316 323 325 328 331 333 335 334 332 332 330 328 326 324 321 317 315 314 315 318 323 329 329 328 332 334 329 323 324 328 328 322 318 318 319 320 322 325 325 322 317
262 259 256 251 247 246 244 239 237 235 227 218 214 213 212 212 214 215 215 212 208 203 197 197 202 213 236 268 287 295 301 309 316 324 328 330 332 333 333 333 331 329 330 329 327 325 322 319 317 316 316 319 323 328 332 329 324 324 327 324 319 323 329 327 320 318 319 319 321 324 324 324 320 313
266 257 255 254 252 252 249 242 237 232 221 209 206 202 196 196 202 204 201 196 191 188 187 187 195 218 258 287 299 304 309 317 324 328 331 333 333 331 331 332 330 329 330 329 326 324 323 322 320 318 319 322 323 325 330 329 322 318 321 322 321 323 327 322 317 319 319 318 320 323 324 324 323 316
267 259 255 253 253 256 257 247 235 225 211 198 198 197 192 191 194 195 197 197 188 183 181 180 236 282 302 309 309 313 319 325 330 332 334 333 332 331 331 332 332 331 330 330 328 327 327 327 326 323 323 324 325 326 325 322 318 318 321 325 327 329 328 320 317 319 320 318 320 322 323 326 328 324
264 260 252 248 249 253 255 250 238 226 215 203 198 197 194 190 184 182 191 203 203 207 234 289 291 286 291 298 307 317 326 330 332 333 332 331 329 329 329 330 332 333 331 331 333 334 334 336 336 332 328 327 330 334 328 319 318 323 328 330 329 327 323 318 317 318 319 319 320 321 324 329 333 331
269 260 248 245 246 248 249 247 243 234 221 207 198 194 191 187 184 190 209 229 243 256 270 276 273 272 277 287 303 317 324 328 329 328 328 327 325 326 329 331 333 334 331 331 337 341 342 343 342 339 337 337 339 347 350 336 328 329 334 334 324 318 317 319 320 320 320 321 322 324 326 332 337 339
258 245 237 241 245 245 243 241 237 232 222 211 204 200 196 195 199 216 237 252 256 252 248 249 256 270 282 290 302 312 318 323 323 321 322 323 323 326 330 332 333 333 330 332 340 346 344 342 340 339 340 341 341 345 356 351 333 328 330 327 320 319 322 326 325 323 324 327 330 329 330 334 339 347
258 245 235 235 239 242 242 239 233 227 222 217 211 207 206 209 217 227 237 240 234 220 213 225 249 275 286 291 299 309 314 316 315 316 319 321 323 327 330 332 333 331 329 333 344 346 339 339 338 336 336 337 337 339 346 350 337 328 327 323 322 325 327 328 327 328 332 336 336 334 334 337 342 349
256 252 246 241 237 236 237 235 231 228 227 225 221 217 218 223 226 225 220 214 210 205 204 219 248 267 277 288 299 308 310 309 310 314 317 319 323 327 329 331 333 330 330 337 349 342 336 337 336 333 332 332 332 333 336 338 341 338 331 325 325 329 331 330 331 334 338 341 340 339 341 344 347 349
252 250 248 247 246 241 234 230 229 227 225 225 224 222 220 214 207 203 204 207 208 204 202 218 249 261 272 289 301 304 304 304 308 312 315 318 324 328 330 332 332 330 334 352 6 354 343 339 335 333 332 331 329 329 330 330 334 339 332 323 324 329 331 332 335 338 341 344 346 346 345 346 347 345
257 254 250 248 250 248 238 230 228 224 222 221 221 216 208 200 197 201 210 213 205 196 205 237 253 261 273 289 296 296 299 303 307 312 316 321 325 328 331 331 327 325 336 5 14 2 352 345 338 334 333 332 331 330 330 328 332 337 333 324 324 327 329 333 338 342 345 351 357 0 358 353 348 346
256 257 257 255 256 253 243 236 234 233 232 230 223 211 202 202 206 210 213 209 201 199 218 240 246 253 267 278 286 294 301 305 310 316 320 324 326 328 329 330 326 327 341 359 359 352 347 343 338 335 335 335 333 331 330 330 333 337 333 324 323 323 327 335 342 345 348 354 7 15 13 9 10 12
256 251 255 258 260 257 250 247 247 245 243 238 228 214 204 204 208 209 206 202 198 202 216 228 234 245 259 271 287 301 308 313 318 321 322 323 324 326 330 335 342 345 347 345 340 335 333 334 335 335 337 336 332 329 330 330 331 332 329 323 322 322 328 337 345 348 350 355 6 16 17 16 18 21
281 260 254 259 266 268 266 265 258 248 237 228 219 210 202 200 202 202 199 194 190 195 211 223 232 243 259 275 295 309 316 318 319 319 318 319 321 326 334 343 348 349 346 343 341 335 330 331 335 338 339 335 327 324 327 329 330 331 330 327 324 322 328 337 345 352 358 1 6 14 20 21 18 15
303 274 254 251 260 269 270 264 248 231 219 211 208 206 204 202 200 195 187 183 183 191 205 218 229 245 267 289 305 314 316 314 313 314 315 317 320 325 336 344 347 350 348 342 339 337 335 337 339 342 344 342 331 321 323 327 329 333 335 333 327 323 329 337 345 356 4 6 6 11 19 25 25 22
309 268 248 238 241 249 251 246 230 217 210 208 210 209 206 202 198 188 174 170 178 189 199 218 246 266 285 301 310 312 311 309 311 312 312 313 316 322 338 351 356 358 349 339 335 334 335 341 345 347 351 351 342 326 318 320 326 334 341 341 335 331 333 338 346 0 8 6 5 11 17 22 24 26
Height
1561 1562 1562 1563 1563 1564 1564 1565 1566 1567 1569 1571 1572 1573 1573 1573 1574 1575 1577 1578 1579 1579 1580 1581 1582 1582 1583 1583 1584 1584 1584 1585 1585 1586 1586 1587 1587 1588 1588 1588 1588 1588 1588 1588 1589 1589 1589 1589 1589 1589 1589 1589 1589 1588 1588 1587 1587 1586 1585 1585 1584 1583 1582 1581 1581 1580 1579 1578 1577 1576 1575 1574 1573 1572
1562 1563 1563 1564 1564 1565 1566 1566 1567 1568 1570 1572 1573 1574 1575 1575 1575 1575 1576 1578 1579 1580 1581 1582 1582 1583 1584 1584 1584 1585 1585 1585 1586 1586 1587 1587 1588 1588 1589 1589 1589 1589 1589 1589 1589 1589 1589 1589 1589 1590 1589 1589 1589 1588 1588 1587 1586 1586 1585 1584 1583 1582 1581 1580 1579 1578 1577 1576 1575 1574 1573 1572 1571 1570
1563 1564 1564 1565 1565 1566 1567 1568 1569 1570 1571 1573 1574 1575 1575 1576 1576 1577 1577 1578 1579 1580 1581 1582 1583 1583 1584 1584 1585 1585 1585 1586 1586 1587 1587 1588 1588 1589 1589 1589 1589 1589 1589 1589 1589 1589 1589 1589 1589 1589 1589 1588 1588 1587 1587 1586 1586 1585 1584 1583 1582 1581 1580 1579 1578 1577 1576 1575 1574 1573 1572 1571 1570 1569
1564 1565 1566 1566 1567 1567 1568 1569 1570 1571 1573 1574 1575 1576 1576 1577 1577 1578 1578 1578 1579 1580 1582 1582 1583 1584 1584 1585 1585 1585 1586 1586 1587 1587 1588 1589 1589 1589 1590 1590 1589 1589 1589 1589 1589 1589 1588 1588 1588 1588 1587 1587 1586 1586 1585 1585 1584 1584 1583 1582 1581 1580 1579 1578 1577 1575 1574 1573 1572 1571 1570 1569 1568 1567
1565 1566 1566 1567 1568 1569 1570 1571 1572 1573 1574 1575 1576 1576 1577 1577 1578 1579 1579 1579 1580 1581 1582 1582 1583 1584 1585 1585 1585 1586 1586 1587 1588 1588 1589 1589 1589 1590 1590 1590 1590 1589 1589 1589 1589 1588 1588 1588 1587 1587 1586 1586 1585 1585 1584 1583 1583 1582 1581 1581 1580 1579 1578 1576 1575 1574 1573 1571 1570 1569 1568 1567 1566 1565
1566 1566 1567 1568 1569 1570 1571 1571 1573 1574 1575 1576 1576 1577 1577 1577 1578 1579 1580 1580 1581 1581 1582 1583 1583 1584 1585 1585 1586 1586 1587 1588 1588 1589 1589 1589 1590 1590 1590 1590 1590 1589 1589 1589 1588 1588 1588 1587 1586 1586 1585 1585 1584 1584 1583 1582 1582 1581 1580 1579 1578 1577 1576 1575 1574 1572 1571 1570 1569 1567 1566 1565 1564 1562
1566 1567 1568 1569 1569 1570 1571 1572 1573 1574 1575 1576 1576 1577 1577 1577 1578 1579 1580 1580 1581 1582 1582 1583 1584 1585 1585 1586 1586 1587 1587 1588 1588 1588 1589 1589 1589 1589 1589 1589 1589 1589 1589 1588 1588 1588 1587 1586 1586 1585 1585 1584 1583 1582 1582 1581 1580 1579 1578 1577 1576 1575 1574 1573 1572 1571 1569 1568 1567 1566 1564 1563 1561 1560
1566 1567 1568 1569 1570 1571 1571 1572 1573 1574 1575 1575 1576 1576 1576 1576 1577 1578 1579 1580 1581 1582 1582 1583 1584 1585 1585 1586 1586 1587 1587 1588 1588 1588 1588 1589 1589 1589 1589 1588 1588 1588 1588 1588 1588 1587 1586 1585 1585 1584 1584 1583 1582 1581 1581 1580 1579 1578 1576 1575 1574 1573 1572 1571 1570 1569 1568 1566 1565 1564 1562 1561 1560 1558
1566 1567 1568 1569 1570 1570 1571 1572 1572 1573 1573 1574 1575 1575 1575 1575 1576 1576 1578 1579 1580 1581 1582 1583 1584 1584 1585 1585 1586 1586 1587 1587 1587 1588 1588 1588 1588 1588 1588 1588 1588 1588 1588 1587 1587 1586 1585 1584 1584 1583 1583 1582 1581 1580 1579 1578 1577 1576 1575 1573 1572 1571 1570 1569 1568 1567 1566 1564 1563 1561 1560 1559 1557 1556
1566 1567 1568 1568 1569 1570 1570 1571 1571 1572 1572 1572 1573 1574 1574 1574 1574 1575 1576 1578 1579 1580 1581 1582 1583 1583 1583 1584 1584 1585 1585 1586 1586 1587 1587 1587 1587 1587 1587 1587 1587 1587 1587 1586 1586 1585 1584 1583 1583 1582 1581 1580 1579 1578 1577 1576 1575 1574 1573 1571 1570 1569 1568 1567 1566 1565 1564 1563 1561 1560 1558 1557 1555 1554
1566 1567 1567 1568 1568 1569 1569 1570 1570 1571 1571 1571 1571 1572 1572 1573 1573 1574 1575 1576 1577 1578 1579 1580 1581 1582 1582 1583 1583 1584 1584 1585 1585 1585 1586 1586 1586 1586 1586 1586 1586 1586 1585 1585 1584 1583 1583 1582 1581 1581 1580 1579 1578 1576 1575 1574 1573 1571 1570 1569 1568 1567 1566 1565 1564 1563 1562 1560 1559 1558 1556 1555 1553 1552
1565 1566 1567 1567 1568 1568 1568 1569 1569 1569 1570 1570 1570 1571 1571 1572 1573 1573 1574 1575 1576 1577 1578 1579 1579 1580 1580 1581 1582 1582 1583 1583 1583 1584 1584 1584 1584 1584 1584 1584 1584 1584 1584 1583 1583 1582 1581 1580 1580 1579 1578 1577 1575 1574 1573 1571 1570 1569 1567 1566 1565 1564 1563 1562 1561 1560 1559 1558 1556 1555 1554 1552 1551 1549
1564 1565 1566 1566 1566 1567 1567 1568 1568 1568 1569 1569 1569 1570 1571 1571 1572 1573 1574 1574 1575 1576 1577 1577 1578 1578 1579 1579 1580 1580 1581 1581 1581 1581 1582 1582 1582 1582 1582 1582 1582 1582 1582 1581 1581 1580 1579 1579 1578 1577 1575 1574 1573 1571 1570 1569 1568 1566 1565 1564 1562 1561 1560 1559 1558 1557 1556 1554 1553 1552 1551 1549 1548 1546
1563 1563 1564 1564 1565 1565 1565 1566 1566 1567 1567 1567 1568 1568 1569 1570 1571 1572 1573 1574 1574 1575 1576 1576 1577 1577 1577 1578 1578 1579 1579 1579 1579 1580 1580 1580 1580 1580 1580 1580 1581 1581 1580 1579 1579 1578 1577 1576 1575 1574 1572 1571 1570 1569 1568 1566 1565 1564 1562 1561 1560 1559 1557 1556 1555 1553 1552 1551 1550 1548 1547 1546 1544 1542
1561 1562 1562 1563 1563 1563 1563 1564 1564 1564 1565 1566 1566 1567 1568 1569 1570 1571 1572 1572 1573 1574 1574 1575 1575 1576 1576 1577 1577 1577 1577 1578 1578 1578 1578 1578 1578 1578 1578 1578 1578 1578 1578 1577 1577 1576 1574 1573 1572 1571 1569 1568 1567 1566 1565 1564 1563 1561 1560 1559 1558 1556 1555 1553 1551 1550 1549 1547 1546 1545 1543 1542 1540 1538
1559 1560 1560 1560 1561 1561 1561 1561 1561 1562 1563 1563 1564 1565 1566 1567 1568 1569 1570 1571 1571 1572 1573 1573 1574 1574 1575 1575 1576 1576 1576 1576 1576 1576 1577 1577 1577 1577 1576 1576 1576 1576 1576 1575 1574 1573 1572 1571 1570 1568 1567 1566 1565 1564 1563 1561 1560 1559 1557 1556 1555 1553 1551 1550 1548 1547 1546 1544 1543 1541 1539 1538 1536 1534
1557 1557 1557 1558 1558 1558 1558 1558 1559 1559 1560 1561 1562 1564 1565 1566 1566 1567 1568 1569 1570 1570 1571 1571 1572 1572 1573 1573 1574 1574 1574 1574 1574 1575 1575 1575 1575 1575 1575 1575 1575 1574 1574 1573 1572 1571 1570 1569 1567 1566 1564 1563 1562 1561 1560 1559 1557 1556 1555 1553 1551 1549 1547 1546 1544 1543 1542 1541 1539 1537 1536 1534 1532 1530
1555 1555 1555 1555 1555 1555 1555 1555 1555 1556 1557 1559 1560 1562 1563 1564 1565 1566 1567 1567 1568 1569 1569 1570 1570 1570 1571 1571 1571 1572 1572 1572 1573 1573 1573 1573 1573 1573 1572 1572 1572 1571 1571 1570 1569 1568 1567 1566 1565 1564 1562 1561 1560 1559 1557 1556 1555 1553 1552 1550 1548 1546 1544 1542 1540 1539 1538 1537 1535 1534 1532 1530 1528 1527
1553 1553 1553 1553 1553 1553 1552 1552 1553 1554 1555 1556 1558 1559 1560 1562 1563 1564 1565 1565 1566 1566 1567 1568 1568 1568 1569 1569 1570 1570 1570 1571 1571 1571 1571 1571 1570 1570 1570 1570 1569 1568 1568 1567 1566 1565 1564 1563 1562 1562 1561 1560 1558 1558 1556 1554 1552 1551 1549 1547 1546 1543 1541 1539 1537 1535 1534 1532 1531 1530 1528 1526 1525 1523
1551 1551 1551 1551 1551 1550 1550 1550 1551 1552 1553 1554 1556 1557 1558 1560 1561 1562 1563 1563 1564 1564 1565 1566 1566 1567 1567 1568 1568 1568 1569 1569 1569 1570 1570 1569 1569 1568 1568 1567 1567 1566 1565 1565 1564 1563 1562 1561 1559 1558 1558 1556 1555 1555 1554 1552 1550 1548 1546 1544 1542 1540 1538 1536 1534 1532 1531 1529 1528 1526 1525 1523 1521 1519
1549 1548 1548 1548 1548 1548 1548 1549 1549 1551 1552 1553 1554 1555 1557 1558 1559 1560 1560 1561 1562 1563 1564 1564 1565 1565 1566 1566 1566 1567 1567 1567 1568 1568 1568 1568 1567 1567 1566 1565 1565 1564 1563 1562 1562 1560 1559 1558 1556 1554 1554 1553 1552 1551 1550 1548 1547 1545 1544 1542 1539 1537 1535 1533 1531 1530 1528 1527 1525 1524 1522 1520 1518 1517
1547 1546 1546 1547 1547 1547 1547 1548 1548 1549 1550 1551 1552 1553 1555 1556 1557 1558 1558 1559 1560 1561 1562 1562 1563 1563 1564 1564 1565 1565 1565 1565 1565 1566 1566 1566 1565 1564 1564 1563 1562 1562 1561 1560 1559 1558 1557 1556 1554 1551 1549 1548 1547 1547 1546 1545 1544 1542 1540 1538 1536 1534 1533 1531 1529 1528 1526 1524 1523 1522 1520 1518 1516 1515
1545 1545 1545 1545 1546 1546 1546 1547 1547 1548 1549 1550 1551 1552 1553 1554 1555 1555 1556 1557 1558 1559 1560 1560 1561 1561 1562 1562 1562 1563 1563 1563 1563 1564 1564 1563 1563 1562 1562 1561 1560 1560 1558 1557 1556 1555 1553 1552 1551 1549 1546 1543 1542 1542 1542 1540 1540 1539 1537 1535 1533 1531 1530 1528 1527 1525 1524 1522 1521 1520 1518 1517 1515 1513
1543 1543 1543 1544 1545 1545 1546 1546 1547 1547 1548 1549 1550 1551 1552 1553 1553 1554 1554 1555 1556 1556 1557 1558 1559 1559 1560 1560 1561 1561 1561 1561 1561 1561 1562 1561 1561 1560 1560 1559 1558 1557 1556 1554 1553 1552 1550 1549 1548 1546 1545 1542 1539 1538 1537 1536 1536 1535 1534 1533 1530 1528 1527 1525 1524 1522 1521 1520 1519 1518 1516 1515 1513 1511
1541 1542 1542 1543 1544 1544 1545 1545 1546 1547 1547 1548 1549 1550 1551 1552 1552 1552 1553 1553 1554 1554 1555 1556 1557 1557 1558 1558 1558 1558 1558 1558 1559 1559 1559 1559 1558 1558 1557 1556 1556 1555 1553 1552 1551 1549 1548 1547 1545 1543 1542 1540 1537 1535 1533 1533 1532 1532 1532 1530 1527 1525 1524 1522 1521 1520 1519 1518 1517 1516 1514 1513 1512 1510
1540 1541 1542 1543 1543 1543 1544 1544 1544 1545 1546 1547 1548 1549 1550 1550 1550 1550 1551 1551 1552 1552 1553 1554 1555 1555 1556 1556 1556 1556 1556 1556 1556 1556 1556 1556 1556 1555 1555 1554 1553 1552 1551 1550 1549 1547 1545 1544 1543 1541 1539 1537 1535 1533 1531 1529 1529 1528 1528 1527 1525 1523 1521 1520 1518 1518 1517 1516 1515 1513 1512 1511 1510 1508
1538 1539 1540 1541 1541 1542 1542 1542 1542 1543 1544 1545 1546 1547 1547 1548 1548 1548 1549 1549 1550 1550 1551 1552 1552 1553 1553 1553 1553 1553 1553 1553 1553 1554 1554 1554 1554 1553 1553 1552 1551 1550 1549 1548 1546 1545 1543 1541 1540 1538 1537 1534 1532 1530 1528 1526 1525 1525 1524 1523 1523 1521 1520 1518 1516 1516 1515 1513 1512 1511 1510 1509 1507 1506
1536 1536 1537 1538 1538 1539 1539 1540 1540 1541 1541 1542 1543 1544 1545 1545 1545 1546 1547 1547 1548 1549 1549 1550 1550 1550 1550 1550 1550 1550 1551 1551 1552 1552 1553 1552 1552 1551 1551 1550 1549 1547 1546 1545 1544 1542 1540 1539 1537 1536 1535 1533 1530 1528 1526 1524 1523 1523 1521 1520 1520 1519 1518 1516 1515 1514 1513 1512 1511 1509 1507 1506 1504 1502
1533 1533 1534 1534 1535 1536 1536 1537 1537 1538 1538 1540 1541 1542 1542 1543 1544 1544 1545 1546 1546 1547 1547 1547 1547 1547 1547 1548 1548 1549 1549 1550 1551 1551 1551 1550 1550 1549 1548 1547 1546 1545 1544 1543 1542 1540 1538 1537 1535 1533 1532 1531 1529 1527 1525 1523 1522 1521 1520 1518 1517 1517 1516 1515 1514 1512 1511 1510 1509 1507 1505 1503 1501 1499
1530 1530 1531 1531 1532 1532 1533 1534 1535 1535 1535 1536 1538 1539 1540 1541 1542 1543 1544 1544 1545 1545 1545 1545 1545 1546 1546 1546 1547 1548 1548 1549 1549 1549 1549 1548 1548 1547 1546 1545 1544 1544 1543 1541 1540 1538 1536 1534 1533 1531 1529 1528 1527 1526 1524 1522 1520 1519 1519 1517 1515 1514 1514 1513 1512 1511 1509 1508 1507 1505 1504 1502 1500 1498
1526 1527 1527 1528 1529 1529 1530 1531 1531 1531 1531 1532 1533 1535 1538 1540 1542 1543 1544 1544 1544 1544 1544 1544 1544 1544 1545 1545 1546 1547 1547 1547 1547 1547 1547 1546 1546 1545 1545 1544 1543 1543 1542 1541 1538 1536 1534 1532 1531 1529 1528 1527 1525 1524 1523 1521 1518 1517 1517 1516 1514 1513 1513 1512 1511 1509 1508 1506 1505 1503 1502 1501 1498 1496
1522 1523 1525 1526 1526 1527 1527 1528 1528 1528 1529 1531 1532 1534 1537 1539 1541 1543 1543 1543 1543 1543 1542 1542 1542 1543 1543 1544 1545 1546 1546 1546 1546 1546 1545 1545 1544 1544 1543 1542 1541 1541 1540 1539 1537 1535 1533 1531 1530 1528 1527 1525 1523 1522 1521 1520 1518 1516 1515 1514 1513 1512 1512 1510 1509 1508 1506 1504 1503 1502 1500 1498 1496 1493
1518 1519 1521 1523 1524 1525 1525 1525 1525 1526 1528 1530 1532 1533 1535 1537 1539 1542 1543 1543 1542 1542 1541 1541 1541 1542 1542 1543 1544 1545 1545 1545 1544 1544 1544 1543 1543 1542 1541 1540 1539 1538 1537 1536 1535 1534 1532 1531 1529 1528 1526 1524 1522 1520 1519 1518 1516 1515 1514 1513 1512 1512 1511 1510 1508 1506 1505 1503 1501 1499 1498 1496 1494 1491
1515 1515 1517 1518 1520 1521 1521 1522 1524 1525 1526 1528 1530 1531 1533 1535 1536 1539 1541 1541 1541 1540 1539 1540 1540 1541 1542 1542 1543 1544 1544 1544 1543 1542 1542 1542 1541 1540 1540 1539 1538 1536 1534 1533 1532 1531 1530 1529 1528 1526 1525 1523 1522 1520 1518 1516 1515 1514 1513 1512 1512 1511 1510 1509 1507 1505 1503 1501 1499 1497 1495 1494 1492 1489
1513 1513 1514 1515 1516 1517 1517 1518 1520 1522 1523 1525 1527 1529 1530 1532 1534 1535 1537 1538 1537 1537 1537 1539 1540 1541 1541 1542 1542 1543 1542 1542 1542 1541 1541 1540 1540 1539 1538 1537 1535 1534 1532 1531 1530 1529 1528 1526 1525 1524 1522 1520 1519 1518 1517 1515 1514 1513 1512 1512 1511 1510 1509 1508 1506 1504 1502 1500 1498 1495 1493 1492 1490 1488
1511 1511 1512 1512 1513 1513 1514 1514 1515 1517 1519 1521 1523 1525 1527 1528 1530 1532 1533 1534 1534 1535 1537 1538 1539 1540 1540 1540 1541 1541 1541 1541 1540 1540 1539 1539 1538 1537 1536 1534 1533 1531 1530 1530 1529 1528 1527 1525 1524 1522 1520 1518 1517 1517 1516 1515 1514 1513 1512 1512 1511 1509 1508 1506 1505 1503 1501 1499 1497 1494 1492 1490 1489 1487
1508 1509 1509 1509 1509 1509 1510 1510 1511 1513 1515 1517 1519 1521 1524 1526 1527 1529 1530 1532 1532 1534 1536 1537 1538 1538 1539 1539 1539 1539 1539 1539 1538 1538 1538 1537 1536 1535 1534 1533 1531 1529 1528 1528 1528 1528 1526 1524 1523 1521 1520 1518 1517 1516 1514 1514 1513 1513 1512 1511 1510 1508 1507 1505 1503 1502 1500 1498 1495 1493 1491 1489 1488 1486
1505 1506 1506 1506 1506 1506 1506 1507 1508 1509 1510 1511 1513 1516 1520 1524 1526 1527 1528 1530 1531 1532 1534 1535 1536 1536 1537 1537 1538 1537 1537 1537 1536 1536 1536 1535 1534 1533 1532 1530 1529 1528 1527 1527 1527 1526 1525 1523 1522 1521 1520 1518 1517 1515 1514 1513 1513 1513 1511 1510 1508 1507 1506 1504 1502 1500 1499 1497 1494 1492 1490 1489 1487 1486
1502 1503 1503 1503 1504 1504 1504 1505 1506 1506 1506 1507 1508 1512 1516 1519 1521 1523 1525 1527 1529 1531 1532 1533 1534 1535 1535 1535 1536 1535 1535 1535 1535 1535 1534 1533 1533 1531 1530 1528 1527 1526 1526 1526 1526 1525 1524 1522 1521 1520 1519 1518 1516 1515 1514 1512 1512 1512 1511 1509 1508 1506 1505 1503 1502 1500 1498 1496 1494 1491 1490 1488 1487 1486
1500 1500 1501 1502 1503 1503 1504 1505 1505 1505 1505 1506 1508 1511 1514 1516 1517 1520 1523 1525 1527 1529 1530 1531 1533 1533 1534 1534 1534 1534 1534 1534 1533 1533 1533 1532 1530 1529 1528 1527 1526 1525 1525 1525 1524 1523 1522 1521 1520 1519 1518 1517 1515 1514 1513 1512 1511 1511 1510 1508 1507 1506 1504 1503 1501 1499 1497 1496 1494 1492 1490 1489 1488 1487
1497 1497 1499 1500 1501 1502 1503 1505 1506 1506 1507 1509 1510 1512 1514 1515 1517 1519 1521 1523 1525 1527 1529 1530 1531 1532 1532 1532 1532 1532 1532 1532 1532 1532 1531 1529 1528 1527 1527 1526 1525 1524 1524 1524 1523 1522 1521 1521 1520 1518 1517 1516 1514 1514 1513 1512 1511 1510 1509 1508 1506 1505 1504 1503 1501 1499 1497 1496 1494 1492 1491 1489 1488 1487
1493 1494 1495 1497 1498 1499 1500 1502 1504 1505 1506 1508 1509 1511 1513 1515 1517 1519 1520 1521 1523 1525 1527 1529 1530 1531 1531 1530 1531 1531 1531 1531 1530 1529 1528 1528 1527 1527 1526 1525 1524 1524 1523 1523 1522 1521 1520 1520 1519 1517 1516 1515 1514 1513 1512 1512 1510 1509 1508 1507 1505 1504 1503 1502 1501 1499 1497 1496 1494 1493 1491 1490 1488 1487
1491 1491 1492 1494 1495 1496 1497 1499 1500 1502 1503 1505 1507 1509 1512 1514 1517 1518 1518 1519 1521 1523 1526 1528 1529 1529 1529 1529 1529 1529 1529 1529 1528 1527 1527 1527 1526 1526 1525 1524 1523 1523 1522 1522 1521 1520 1519 1519 1518 1517 1515 1514 1514 1513 1512 1511 1510 1508 1507 1506 1505 1504 1503 1501 1500 1499 1497 1496 1494 1493 1492 1490 1489 1488
1491 1491 1492 1493 1494 1495 1496 1498 1499 1500 1502 1503 1506 1508 1510 1514 1516 1517 1517 1518 1520 1523 1525 1526 1527 1527 1527 1528 1528 1527 1527 1527 1526 1526 1526 1525 1525 1524 1524 1523 1523 1522 1521 1521 1520 1519 1518 1518 1517 1516 1515 1514 1513 1512 1511 1510 1509 1508 1506 1505 1504 1503 1502 1501 1500 1498 1497 1496 1495 1493 1492 1491 1490 1488
1492 1492 1492 1493 1494 1495 1496 1497 1499 1500 1502 1503 1505 1507 1509 1513 1516 1517 1517 1518 1520 1522 1524 1525 1525 1526 1526 1526 1526 1525 1525 1525 1525 1525 1524 1524 1524 1523 1523 1522 1522 1521 1520 1520 1519 1518 1518 1517 1516 1516 1515 1514 1512 1511 1510 1509 1508 1507 1506 1504 1503 1502 1501 1500 1499 1498 1497 1496 1495 1494 1492 1491 1490 1489